[[{"header":{"parameterUnit":"m.s-1","parameterCategory":1,"la1":30.2992,"la2":30.254,"lo1":-89.0895,"lo2":-89.0443,"dy":0.0025,"dx":0.0025,"nx":19,"ny":19,"refTime":"2026-03-27T09:00:00:Z","depth":0,"parameterNumber":2,"parameterNumberName":"U-component_of_WINDS"},"data":[0,0,0,-2.0751,-2.0753,-2.0854,-2.0854,-2.0992,-2.0993,0,0,0,0,0,0,0,0,0,0,0,-2.0725,-2.0727,-2.075,-2.0753,-2.0854,-2.0854,-2.0991,-2.0993,0,0,0,0,0,0,0,0,0,0,0,-2.0725,-2.0726,-2.0728,-2.0753,-2.0854,-2.0854,-2.0991,-2.0912,0,0,0,0,0,0,0,0,0,0,-2.0812,-2.0794,-2.0726,-2.0728,-2.0754,-2.0854,-2.0855,-2.0908,-2.0917,-2.0949,0,-2.0979,0,-2.0988,-2.1003,-2.1003,0,0,0,-2.075,-2.0787,-2.0809,-2.0728,-2.0755,-2.0854,-2.0807,-2.0913,-2.0923,-2.0961,-2.0981,-2.0986,-2.0991,-2.1004,-2.1004,-2.1201,-2.1202,0,0,-2.0744,-2.0746,-2.0803,-2.0816,-2.0801,-2.0804,-2.0811,-2.0919,-2.0941,-2.0982,-2.0989,-2.0993,-2.1005,-2.1006,-2.12,-2.1202,0,0,0,-2.073,-2.0743,-2.0763,-2.0811,-2.0828,-2.0807,-2.0815,-2.0936,-2.0942,-2.099,-2.0994,-2.1005,-2.1007,-2.1199,-2.1201,-2.1257,0,0,0,-2.0727,-2.0735,-2.076,-2.0763,-2.0827,-2.0884,-2.083,-2.0935,-2.0947,-2.0994,-2.1005,-2.1009,-2.1198,-2.12,-2.1253,-2.1284,0,0,0,-2.0717,-2.0733,-2.075,-2.0763,-2.0806,-2.0882,-2.0894,-2.0937,-2.095,-2.1003,-2.1009,-2.1197,-2.12,-2.1249,-2.1278,-2.1337,0,0,0,-2.0708,-2.0799,-2.0751,-2.0854,-2.0806,-2.0915,-2.0893,-2.0975,-2.1028,-2.1006,-2.1198,-2.1201,-2.1248,-2.1274,-2.1333,-2.1387,-2.141,0,0,-2.0824,-2.0813,-2.0873,-2.0833,-2.0952,-2.09,-2.1027,-2.1073,-2.1076,-2.1159,-2.1164,-2.1254,-2.1277,-2.1336,-2.1535,-2.1553,0,0,0,-2.0911,-2.0954,-2.0985,-2.1035,-2.1072,-2.1106,-2.1132,-2.1148,-2.1219,-2.1119,-2.1291,-2.1305,-2.1339,-2.1365,-2.138,-2.1409,-2.1212,-2.1212,-2.1212,-2.108,-2.1078,-2.1178,-2.1188,-2.1236,-2.1261,-2.13,-2.1327,-2.1311,-2.1351,-2.1377,-2.1498,-2.1528,-2.154,-2.157,-2.1404,-2.1405,-2.1405,-2.1405,-2.1251,-2.1313,-2.1288,-2.1376,-2.1373,-2.1447,-2.1473,-2.1459,-2.1528,-2.1479,-2.1509,-2.1457,-2.156,-2.1586,-2.1409,-2.1408,-2.1408,-2.1408,-2.1407,-2.1363,-2.1392,-2.141,-2.1481,-2.1536,-2.1542,-2.1608,-2.1603,-2.1598,-2.1628,-2.1654,-2.1653,-2.1652,-2.164,-2.1641,-2.1641,-2.1642,-2.1642,-2.1642,-2.1473,-2.1491,-2.1547,-2.1593,-2.1623,-2.1663,-2.1687,-2.1718,-2.1749,-2.174,-2.174,-2.1721,-2.157,-2.1532,-2.1649,-2.1648,-2.1647,-2.1646,-2.1646,-2.1649,-2.1608,-2.1695,-2.1726,-2.1778,-2.1832,-2.1824,-2.1885,-2.1909,-2.1942,-2.1915,-2.1803,-2.1792,-2.178,-2.1749,-2.1914,-2.1914,-2.1914,-2.1915,-2.1744,-2.1737,-2.1825,-2.1874,-2.1921,-2.1922,-2.202,-2.2039,-2.2053,-2.2067,-2.2042,-2.2,-2.1988,-2.1984,-2.1967,-2.1938,-2.2148,-2.2149,-2.2149,-2.1853,-2.185,-2.1935,-2.1947,-2.1987,-2.2021,-2.2113,-2.2171,-2.2177,-2.2158,-2.2079,-2.2069,-2.2001,-2.1979,-2.1961,-2.1935,-2.1882,0,0]},{"header":{"parameterUnit":"m.s-1","parameterCategory":1,"la1":30.2992,"la2":30.254,"lo1":-89.0895,"lo2":-89.0443,"dy":0.0025,"dx":0.0025,"nx":19,"ny":19,"refTime":"2026-03-27T09:00:00:Z","depth":0,"parameterNumber":3,"parameterNumberName":"V-component_of_WINDS"},"data":[0,0,0,-8.9168,-8.9172,-8.9381,-8.9382,-8.9663,-8.9666,0,0,0,0,0,0,0,0,0,0,0,-8.9119,-8.9121,-8.9167,-8.9173,-8.9381,-8.9382,-8.9663,-8.9666,0,0,0,0,0,0,0,0,0,0,0,-8.9118,-8.9121,-8.9124,-8.9174,-8.9381,-8.9382,-8.9662,-8.9498,0,0,0,0,0,0,0,0,0,0,-8.9293,-8.9262,-8.912,-8.9124,-8.9175,-8.9381,-8.9382,-8.949,-8.9509,-8.9576,0,-8.9644,0,-8.966,-8.9686,-8.9687,0,0,0,-8.9162,-8.9247,-8.9292,-8.9124,-8.9177,-8.938,-8.9284,-8.95,-8.9521,-8.9601,-8.9648,-8.9657,-8.9664,-8.9688,-8.9689,-9.0126,-9.0128,0,0,-8.915,-8.9162,-8.9277,-8.9306,-8.9279,-8.9277,-8.9291,-8.9513,-8.9563,-8.9648,-8.9664,-8.9669,-8.969,-8.9692,-9.0124,-9.0127,0,0,0,-8.9125,-8.9155,-8.9194,-8.9295,-8.9332,-8.9284,-8.9299,-8.9553,-8.9565,-8.9667,-8.9672,-8.9692,-8.9695,-9.0121,-9.0125,-9.0265,0,0,0,-8.9117,-8.914,-8.9189,-8.9199,-8.9328,-8.9446,-8.9334,-8.9549,-8.9574,-8.9671,-8.9692,-8.9698,-9.0118,-9.0123,-9.0255,-9.0328,0,0,0,-8.9101,-8.9138,-8.9173,-8.9199,-8.929,-8.9442,-8.9466,-8.9554,-8.9578,-8.9687,-8.9699,-9.0116,-9.0122,-9.0246,-9.0314,-9.0448,0,0,0,-8.9085,-8.9292,-8.9175,-8.9407,-8.9288,-8.9528,-8.9465,-8.9642,-8.9752,-8.9693,-9.0118,-9.0124,-9.0243,-9.0305,-9.0439,-9.0564,-9.0617,0,0,-8.9352,-8.9324,-8.946,-8.9362,-8.9627,-8.9495,-8.9778,-8.9866,-8.9862,-9.0037,-9.0048,-9.0258,-9.0313,-9.0446,-9.091,-9.0953,0,0,0,-8.9549,-8.9647,-8.9714,-8.9822,-8.9896,-8.9965,-9.0008,-9.004,-9.0189,-8.9957,-9.0342,-9.0374,-9.0451,-9.0511,-9.0547,-9.0612,-9.0152,-9.0151,-9.0151,-8.9943,-8.9932,-9.0155,-9.017,-9.0274,-9.0318,-9.0401,-9.0451,-9.0405,-9.0497,-9.0549,-9.0832,-9.0902,-9.0929,-9.0998,-9.0613,-9.0614,-9.0614,-9.0614,-9.0333,-9.0471,-9.0409,-9.0604,-9.0589,-9.0751,-9.08,-9.0763,-9.0909,-9.0792,-9.0859,-9.0733,-9.0976,-9.1036,-9.0625,-9.0623,-9.0622,-9.0621,-9.062,-9.0591,-9.0655,-9.0693,-9.0849,-9.0969,-9.0973,-9.1119,-9.1098,-9.108,-9.1147,-9.1199,-9.1197,-9.1193,-9.1173,-9.1174,-9.1175,-9.1176,-9.1177,-9.1177,-9.0844,-9.0883,-9.101,-9.1108,-9.1174,-9.1259,-9.1305,-9.1368,-9.1433,-9.1407,-9.1407,-9.1353,-9.1003,-9.0916,-9.1193,-9.119,-9.1188,-9.1187,-9.1186,-9.1246,-9.1152,-9.1349,-9.1417,-9.1529,-9.1649,-9.1622,-9.1754,-9.1803,-9.1875,-9.1806,-9.1551,-9.1519,-9.149,-9.1418,-9.1809,-9.1809,-9.1809,-9.1809,-9.1464,-9.1447,-9.1644,-9.1754,-9.1857,-9.1854,-9.2073,-9.211,-9.2132,-9.2161,-9.2101,-9.2003,-9.1975,-9.196,-9.1921,-9.1853,-9.2346,-9.2346,-9.2347,-9.1711,-9.1703,-9.1896,-9.1921,-9.2007,-9.208,-9.2286,-9.2411,-9.2416,-9.2368,-9.2183,-9.2161,-9.2002,-9.1952,-9.19,-9.184,-9.1715,0,0]}]]